FW1466 Weather Reports


Display with metric or nautical units.
time (UTC)temp
F
wind
direction
speed
MPH
gust
MPH
rain 1hr
in
rain 24hr
in
rain mn
in
humidity
%
barometer
mb
20260504044530 57 147 0.0 2.0 0.00 0.10 0.10 74 1006.4
20260504043030 57 194 0.0 2.0 0.00 0.10 0.10 73 1006.3
20260504041529 57 194 0.0 2.0 0.00 0.10 0.10 72 1006.3
20260504040048 57 163 0.0 3.0 0.00 0.10 0.10 71 1006.2
20260504034528 57 198 0.0 2.0 0.00 0.10 0.10 70 1006.3
20260504033028 57 203 0.0 0.0 0.00 0.10 0.10 69 1006.6
20260504031527 58 203 0.0 5.0 0.00 0.10 0.10 69 1006.5
20260504030027 58 231 0.0 0.0 0.00 0.10 0.10 68 1006.7
20260504024526 58 231 0.0 0.0 0.00 0.10 0.10 67 1006.7
20260504023026 59 231 0.0 0.0 0.00 0.10 0.10 67 1006.6
20260504021525 59 231 0.0 0.0 0.00 0.10 0.10 67 1006.5
20260504020025 60 234 0.0 1.0 0.00 0.10 0.10 66 1006.4
20260504014526 60 234 0.0 2.0 0.00 0.10 0.10 65 1006.4
20260504013025 61 234 0.0 2.0 0.00 0.10 0.10 65 1006.2
20260504011525 62 234 0.0 2.0 0.00 0.10 0.10 63 1006.3
20260504010023 63 234 0.0 2.0 0.00 0.10 0.10 61 1006.1
20260504004533 64 311 0.0 2.0 0.00 0.10 0.10 60 1006.2
20260504003021 65 312 1.0 4.0 0.00 0.10 0.10 58 1006.1
20260504001521 66 19 1.0 3.0 0.00 0.10 0.10 56 1006.2
20260504000021 67 22 0.0 4.0 0.00 0.10 0.10 55 1006.2
20260503234519 67 196 2.0 7.0 0.00 0.10 0.10 52 1006.1
20260503233021 67 264 1.0 8.0 0.00 0.10 0.10 53 1006.2
20260503231518 68 271 1.0 10.0 0.00 0.10 0.10 52 1006.3
20260503230017 68 278 3.0 10.0 0.00 0.10 0.10 51 1006.3
20260503224515 68 238 3.0 9.0 0.00 0.10 0.10 50 1006.4
20260503223014 68 266 2.0 7.0 0.00 0.10 0.10 51 1006.5
20260503221512 68 288 1.0 7.0 0.00 0.10 0.10 52 1006.7
20260503220011 67 165 1.0 6.0 0.00 0.10 0.10 51 1006.8
20260503214509 68 296 2.0 9.0 0.00 0.10 0.10 51 1006.9
20260503213007 67 325 2.0 8.0 0.00 0.10 0.10 49 1007.1
20260503211505 67 162 1.0 9.0 0.00 0.10 0.10 53 1007.5
20260503210003 66 158 2.0 9.0 0.00 0.10 0.10 51 1007.7
20260503204600 67 321 2.0 10.0 0.00 0.10 0.10 52 1008.1
20260503203058 66 117 1.0 11.0 0.00 0.10 0.10 52 1008.4
20260503201556 65 213 3.0 10.0 0.00 0.10 0.10 50 1008.5
20260503200059 64 241 4.0 14.0 0.00 0.10 0.10 49 1008.7
20260503194552 64 176 3.0 7.0 0.00 0.10 0.10 51 1009.1
20260503193105 66 242 2.0 11.0 0.00 0.10 0.10 52 1009.3
20260503191546 63 171 3.0 13.0 0.00 0.10 0.10 56 1009.6
20260503190044 62 134 6.0 16.0 0.00 0.10 0.10 60 1009.7
20260503184537 60 173 7.0 14.0 0.00 0.10 0.10 65 1009.9
20260503183038 58 172 5.0 13.0 0.00 0.10 0.10 71 1010.2
20260503181529 56 193 4.0 13.0 0.01 0.10 0.10 76 1010.4
20260503180027 54 144 7.0 14.0 0.01 0.10 0.10 78 1010.8
20260503174529 51 167 3.0 9.0 0.02 0.10 0.10 87 1011.2
20260503173024 49 162 3.0 9.0 0.02 0.10 0.10 90 1011.5
20260503171522 48 169 3.0 9.0 0.02 0.09 0.09 89 1012.4
20260503081559 43 215 0.0 0.0 0.00 0.00 0.00 71 1015.7
20260503080106 44 215 0.0 0.0 0.00 0.00 0.00 70 1015.7
20260503071604 44 233 0.0 0.0 0.00 0.00 0.00 69 1015.9
20260503070111 44 234 0.0 0.0 0.00 0.00 0.00 68 1016.0